Time,TemperatureF,DewpointF,PressureIn,WindDirection,WindDirectionDegrees,WindSpeedMPH,WindSpeedGustMPH,Humidity,HourlyPrecipIn,Conditions,Clouds,dailyrainin,SoftwareType,DateUTC
2013-02-09 00:00:00,59.1,56.8,30.09,West,263,0.4,3.0,92,0.00,,---,0.00,VWS V14.01,2013-02-09 05:00:00,
2013-02-09 00:05:00,59.2,57.0,30.09,WNW,284,1.8,1.8,92,0.00,,---,0.00,VWS V14.01,2013-02-09 05:05:00,
2013-02-09 00:10:00,59.5,57.4,30.09,WSW,240,0.0,0.0,93,0.00,,---,0.00,VWS V14.01,2013-02-09 05:10:00,
2013-02-09 00:15:00,59.6,57.6,30.08,WSW,240,0.0,0.0,93,0.00,,---,0.00,VWS V14.01,2013-02-09 05:15:00,
2013-02-09 00:20:00,59.2,57.2,30.08,WSW,240,0.0,0.0,93,0.00,,---,0.00,VWS V14.01,2013-02-09 05:20:00,
2013-02-09 00:25:00,59.5,57.7,30.08,WSW,240,0.0,0.0,94,0.00,,---,0.00,VWS V14.01,2013-02-09 05:25:00,
2013-02-09 00:30:00,59.4,57.6,30.08,WSW,240,0.0,0.0,94,0.00,,---,0.00,VWS V14.01,2013-02-09 05:30:00,
2013-02-09 00:35:00,58.8,57.0,30.08,WSW,240,0.0,0.0,94,0.00,,---,0.00,VWS V14.01,2013-02-09 05:35:00,
2013-02-09 00:40:00,59.1,57.4,30.08,WSW,240,0.0,0.0,94,0.00,,---,0.00,VWS V14.01,2013-02-09 05:40:00,
2013-02-09 00:45:00,59.0,57.4,30.09,NW,305,2.7,3.3,94,0.00,,---,0.00,VWS V14.01,2013-02-09 05:45:00,
2013-02-09 00:50:00,58.2,56.8,30.09,WNW,298,1.7,2.9,95,0.00,,---,0.00,VWS V14.01,2013-02-09 05:50:00,
2013-02-09 00:55:00,58.5,57.2,30.09,WNW,288,1.0,4.0,95,0.00,,---,0.00,VWS V14.01,2013-02-09 05:55:00,
2013-02-09 01:00:00,58.7,57.4,30.09,WNW,300,2.7,2.9,96,0.00,,---,0.00,VWS V14.01,2013-02-09 06:00:00,
2013-02-09 01:05:00,58.2,57.0,30.09,WNW,295,0.0,0.7,96,0.00,,---,0.00,VWS V14.01,2013-02-09 06:05:00,
2013-02-09 01:10:00,58.3,57.1,30.09,WNW,295,0.0,0.0,96,0.00,,---,0.00,VWS V14.01,2013-02-09 06:10:00,
2013-02-09 01:15:00,58.3,57.2,30.09,WNW,295,0.0,0.0,96,0.00,,---,0.00,VWS V14.01,2013-02-09 06:15:00,
2013-02-09 01:20:00,58.0,57.0,30.09,WNW,295,0.0,0.0,96,0.00,,---,0.00,VWS V14.01,2013-02-09 06:20:00,
2013-02-09 01:25:00,58.0,57.0,30.09,WNW,295,0.0,0.0,96,0.00,,---,0.00,VWS V14.01,2013-02-09 06:25:00,
2013-02-09 01:30:00,58.1,57.2,30.09,WNW,295,0.0,0.0,97,0.00,,---,0.00,VWS V14.01,2013-02-09 06:30:00,
2013-02-09 01:35:00,58.1,57.2,30.09,WNW,295,0.0,0.0,97,0.00,,---,0.00,VWS V14.01,2013-02-09 06:35:00,
2013-02-09 01:40:00,58.3,57.5,30.09,WNW,295,0.0,0.0,97,0.00,,---,0.00,VWS V14.01,2013-02-09 06:40:00,
2013-02-09 01:45:00,58.1,57.3,30.09,WNW,295,0.0,0.0,97,0.00,,---,0.00,VWS V14.01,2013-02-09 06:45:00,
2013-02-09 01:50:00,57.2,56.4,30.09,WNW,295,0.0,0.0,97,0.00,,---,0.00,VWS V14.01,2013-02-09 06:50:00,
2013-02-09 01:55:00,57.8,57.0,30.09,WNW,295,0.0,0.0,97,0.00,,---,0.00,VWS V14.01,2013-02-09 06:55:00,
2013-02-09 02:00:00,57.8,57.0,30.09,WNW,295,0.0,0.0,97,0.00,,---,0.00,VWS V14.01,2013-02-09 07:00:00,
2013-02-09 02:05:00,57.6,56.8,30.09,WNW,295,0.0,0.0,97,0.00,,---,0.00,VWS V14.01,2013-02-09 07:05:00,
2013-02-09 02:10:00,57.6,56.8,30.09,West,274,0.7,2.8,97,0.00,,---,0.00,VWS V14.01,2013-02-09 07:10:00,
2013-02-09 02:15:00,57.8,57.1,30.09,West,274,0.0,0.0,97,0.00,,---,0.00,VWS V14.01,2013-02-09 07:15:00,
2013-02-09 02:20:00,57.6,56.9,30.09,West,274,0.0,0.0,97,0.00,,---,0.00,VWS V14.01,2013-02-09 07:20:00,
2013-02-09 02:25:00,57.5,56.8,30.09,West,274,0.0,0.0,97,0.00,,---,0.00,VWS V14.01,2013-02-09 07:25:00,
2013-02-09 02:30:00,56.9,56.2,30.09,West,274,0.0,0.0,97,0.00,,---,0.00,VWS V14.01,2013-02-09 07:30:00,
2013-02-09 02:35:00,57.2,56.4,30.09,West,274,0.0,0.0,97,0.00,,---,0.00,VWS V14.01,2013-02-09 07:35:00,
2013-02-09 02:40:00,57.1,56.4,30.09,West,274,0.0,0.0,97,0.00,,---,0.00,VWS V14.01,2013-02-09 07:40:00,
2013-02-09 02:45:00,57.1,56.4,30.09,West,274,0.0,0.0,98,0.00,,---,0.00,VWS V14.01,2013-02-09 07:45:00,
2013-02-09 02:50:00,56.6,55.9,30.09,West,274,0.0,0.0,98,0.00,,---,0.00,VWS V14.01,2013-02-09 07:50:00,
2013-02-09 02:55:00,56.8,56.1,30.09,North,350,2.2,4.4,98,0.00,,---,0.00,VWS V14.01,2013-02-09 07:55:00,
2013-02-09 03:00:00,56.4,55.8,30.09,North,350,2.4,3.6,98,0.00,,---,0.00,VWS V14.01,2013-02-09 08:00:00,
2013-02-09 03:05:00,56.6,56.0,30.09,North,350,2.9,3.2,98,0.00,,---,0.00,VWS V14.01,2013-02-09 08:05:00,
2013-02-09 03:10:00,56.4,55.8,30.09,North,350,2.4,2.8,98,0.00,,---,0.00,VWS V14.01,2013-02-09 08:10:00,
2013-02-09 03:15:00,56.3,55.7,30.10,North,349,2.9,3.5,98,0.00,,---,0.00,VWS V14.01,2013-02-09 08:15:00,
2013-02-09 03:20:00,55.4,54.8,30.10,North,350,2.4,3.5,98,0.00,,---,0.00,VWS V14.01,2013-02-09 08:20:00,
2013-02-09 03:25:00,56.0,55.4,30.10,North,350,1.9,3.9,98,0.00,,---,0.00,VWS V14.01,2013-02-09 08:25:00,
2013-02-09 03:30:00,55.9,55.3,30.10,North,350,3.2,4.5,98,0.00,,---,0.00,VWS V14.01,2013-02-09 08:30:00,
2013-02-09 03:35:00,55.1,54.5,30.10,North,349,3.2,3.7,98,0.00,,---,0.00,VWS V14.01,2013-02-09 08:35:00,
2013-02-09 03:40:00,55.3,54.7,30.10,NNW,345,3.4,4.3,98,0.00,,---,0.00,VWS V14.01,2013-02-09 08:40:00,
2013-02-09 03:45:00,55.7,55.1,30.10,NNW,347,4.3,4.3,98,0.00,,---,0.00,VWS V14.01,2013-02-09 08:45:00,
2013-02-09 03:50:00,55.5,54.9,30.10,NNW,347,3.5,4.0,98,0.00,,---,0.00,VWS V14.01,2013-02-09 08:50:00,
2013-02-09 03:55:00,55.0,54.4,30.10,NNW,347,3.9,4.2,98,0.00,,---,0.00,VWS V14.01,2013-02-09 08:55:00,
2013-02-09 04:00:00,54.8,54.2,30.10,NNW,338,0.0,2.8,98,0.00,,---,0.00,VWS V14.01,2013-02-09 09:00:00,
2013-02-09 04:05:00,55.3,54.7,30.10,NNW,338,0.0,0.0,98,0.00,,---,0.00,VWS V14.01,2013-02-09 09:05:00,
2013-02-09 04:10:00,55.3,54.8,30.10,NNW,338,0.0,0.0,98,0.00,,---,0.00,VWS V14.01,2013-02-09 09:10:00,
2013-02-09 04:15:00,55.1,54.5,30.10,NNW,338,0.0,0.0,98,0.00,,---,0.00,VWS V14.01,2013-02-09 09:15:00,
2013-02-09 04:20:00,54.5,54.0,30.11,NNW,338,0.0,0.0,98,0.00,,---,0.00,VWS V14.01,2013-02-09 09:20:00,
2013-02-09 04:25:00,55.3,54.8,30.10,NNW,338,0.0,0.0,98,0.00,,---,0.00,VWS V14.01,2013-02-09 09:25:00,
2013-02-09 04:30:00,54.7,54.2,30.11,NNW,338,0.0,0.0,98,0.00,,---,0.00,VWS V14.01,2013-02-09 09:30:00,
2013-02-09 04:35:00,54.5,54.0,30.11,NNW,338,0.0,0.0,98,0.00,,---,0.00,VWS V14.01,2013-02-09 09:35:00,
2013-02-09 04:40:00,55.0,54.5,30.11,NNW,338,0.0,0.0,98,0.00,,---,0.00,VWS V14.01,2013-02-09 09:40:00,
2013-02-09 04:45:00,54.6,54.0,30.11,NNW,338,0.0,0.0,98,0.00,,---,0.00,VWS V14.01,2013-02-09 09:45:00,
2013-02-09 04:50:00,54.6,54.0,30.11,NNW,338,0.0,0.0,98,0.00,,---,0.00,VWS V14.01,2013-02-09 09:50:00,
2013-02-09 04:55:00,54.5,54.0,30.11,NNW,338,0.0,0.0,98,0.00,,---,0.00,VWS V14.01,2013-02-09 09:55:00,
2013-02-09 05:00:00,54.3,53.8,30.11,NNW,338,0.0,0.0,98,0.00,,---,0.00,VWS V14.01,2013-02-09 10:00:00,
2013-02-09 05:05:00,53.9,53.4,30.12,NNW,338,0.0,0.0,98,0.00,,---,0.00,VWS V14.01,2013-02-09 10:05:00,
2013-02-09 05:10:00,53.6,53.1,30.12,NNW,338,0.0,0.0,98,0.00,,---,0.00,VWS V14.01,2013-02-09 10:10:00,
2013-02-09 05:15:00,53.5,53.0,30.12,NNW,338,0.0,0.0,98,0.00,,---,0.00,VWS V14.01,2013-02-09 10:15:00,
2013-02-09 05:20:00,53.7,53.2,30.12,NNW,338,0.0,0.0,98,0.00,,---,0.00,VWS V14.01,2013-02-09 10:20:00,
2013-02-09 05:25:00,54.2,53.7,30.12,NNW,338,0.0,0.0,98,0.00,,---,0.00,VWS V14.01,2013-02-09 10:25:00,
2013-02-09 05:30:00,53.4,52.9,30.12,North,353,0.0,4.3,98,0.00,,---,0.00,VWS V14.01,2013-02-09 10:30:00,
2013-02-09 05:35:00,54.2,53.7,30.12,North,10,3.2,3.2,98,0.00,,---,0.00,VWS V14.01,2013-02-09 10:35:00,
2013-02-09 05:40:00,54.0,53.6,30.13,North,8,1.7,3.7,98,0.00,,---,0.00,VWS V14.01,2013-02-09 10:40:00,
2013-02-09 05:45:00,53.3,52.9,30.13,North,11,2.1,2.7,98,0.00,,---,0.00,VWS V14.01,2013-02-09 10:45:00,
2013-02-09 05:50:00,53.6,53.2,30.13,North,357,1.6,4.1,98,0.00,,---,0.00,VWS V14.01,2013-02-09 10:50:00,
2013-02-09 05:55:00,53.5,53.1,30.13,NE,39,0.6,0.8,98,0.00,,---,0.00,VWS V14.01,2013-02-09 10:55:00,
2013-02-09 06:00:00,53.6,53.2,30.13,North,359,1.9,3.8,98,0.00,,---,0.00,VWS V14.01,2013-02-09 11:00:00,
2013-02-09 06:05:00,54.0,53.6,30.14,North,357,0.0,0.0,98,0.00,,---,0.00,VWS V14.01,2013-02-09 11:05:00,
2013-02-09 06:10:00,53.8,53.4,30.14,North,4,3.7,3.8,98,0.00,,---,0.00,VWS V14.01,2013-02-09 11:10:00,
2013-02-09 06:15:00,54.1,53.7,30.14,North,3,0.0,0.0,98,0.00,,---,0.00,VWS V14.01,2013-02-09 11:15:00,
2013-02-09 06:20:00,54.1,53.7,30.14,North,3,0.0,0.0,98,0.00,,---,0.00,VWS V14.01,2013-02-09 11:20:00,
2013-02-09 06:25:00,53.0,52.6,30.14,NW,326,0.0,0.0,98,0.00,,---,0.00,VWS V14.01,2013-02-09 11:25:00,
2013-02-09 06:30:00,53.4,53.0,30.14,North,0,2.8,3.4,98,0.00,,---,0.00,VWS V14.01,2013-02-09 11:30:00,
2013-02-09 06:35:00,53.2,52.8,30.14,North,6,4.3,5.0,98,0.00,,---,0.00,VWS V14.01,2013-02-09 11:35:00,
2013-02-09 06:40:00,53.8,53.4,30.14,North,6,2.5,4.7,98,0.00,,---,0.00,VWS V14.01,2013-02-09 11:40:00,
2013-02-09 06:45:00,53.9,53.5,30.14,North,11,3.0,4.1,99,0.00,,---,0.00,VWS V14.01,2013-02-09 11:45:00,
2013-02-09 06:50:00,53.5,53.1,30.15,NNE,14,3.1,4.2,99,0.00,,---,0.00,VWS V14.01,2013-02-09 11:50:00,
2013-02-09 06:55:00,53.5,53.1,30.15,NNE,13,1.9,3.0,99,0.01,,---,0.01,VWS V14.01,2013-02-09 11:55:00,
2013-02-09 07:00:00,53.7,53.3,30.15,NNW,347,3.6,4.0,99,0.01,,---,0.01,VWS V14.01,2013-02-09 12:00:00,
2013-02-09 07:05:00,53.1,52.8,30.15,North,0,3.4,5.3,99,0.01,,---,0.01,VWS V14.01,2013-02-09 12:05:00,
2013-02-09 07:10:00,53.3,53.0,30.15,North,1,5.0,5.7,99,0.01,,---,0.01,VWS V14.01,2013-02-09 12:10:00,
2013-02-09 07:15:00,52.9,52.5,30.16,North,1,1.2,2.9,99,0.01,,---,0.01,VWS V14.01,2013-02-09 12:15:00,
2013-02-09 07:20:00,52.9,52.6,30.16,North,8,3.5,4.2,99,0.01,,---,0.01,VWS V14.01,2013-02-09 12:20:00,
2013-02-09 07:25:00,53.5,53.2,30.16,NNE,22,3.0,3.3,99,0.01,,---,0.01,VWS V14.01,2013-02-09 12:25:00,
2013-02-09 07:30:00,53.2,52.9,30.17,North,7,3.1,3.5,99,0.01,,---,0.01,VWS V14.01,2013-02-09 12:30:00,
2013-02-09 07:35:00,53.6,53.3,30.17,North,4,0.0,3.0,99,0.01,,---,0.01,VWS V14.01,2013-02-09 12:35:00,
2013-02-09 07:40:00,53.6,53.3,30.17,NE,41,4.3,6.6,99,0.01,,---,0.01,VWS V14.01,2013-02-09 12:40:00,
2013-02-09 07:45:00,53.7,53.5,30.17,NNE,30,2.7,4.7,99,0.01,,---,0.01,VWS V14.01,2013-02-09 12:45:00,
2013-02-09 07:50:00,53.3,53.1,30.17,North,359,3.7,7.1,99,0.01,,---,0.01,VWS V14.01,2013-02-09 12:50:00,
2013-02-09 07:55:00,53.9,53.7,30.17,North,350,4.7,9.6,99,0.00,,---,0.01,VWS V14.01,2013-02-09 12:55:00,
2013-02-09 08:00:00,53.5,53.3,30.17,NNW,345,8.3,9.7,99,0.00,,---,0.01,VWS V14.01,2013-02-09 13:00:00,
2013-02-09 08:05:00,54.1,53.8,30.18,North,10,7.8,7.8,99,0.00,,---,0.01,VWS V14.01,2013-02-09 13:05:00,
2013-02-09 08:10:00,54.2,53.9,30.18,North,352,6.4,8.5,99,0.00,,---,0.01,VWS V14.01,2013-02-09 13:10:00,
2013-02-09 08:15:00,54.4,54.1,30.18,North,4,6.8,8.0,99,0.00,,---,0.01,VWS V14.01,2013-02-09 13:15:00,
2013-02-09 08:20:00,53.8,53.4,30.18,NNE,22,5.7,8.5,99,0.00,,---,0.01,VWS V14.01,2013-02-09 13:20:00,
2013-02-09 08:25:00,54.0,53.6,30.18,NNE,25,6.4,7.5,98,0.00,,---,0.01,VWS V14.01,2013-02-09 13:25:00,
2013-02-09 08:30:00,54.5,54.0,30.18,North,10,8.5,8.5,98,0.00,,---,0.01,VWS V14.01,2013-02-09 13:30:00,
2013-02-09 08:35:00,55.0,54.5,30.18,NE,35,4.3,8.8,98,0.00,,---,0.01,VWS V14.01,2013-02-09 13:35:00,
2013-02-09 08:40:00,54.7,54.1,30.19,North,4,3.0,4.7,98,0.00,,---,0.01,VWS V14.01,2013-02-09 13:40:00,
2013-02-09 08:45:00,55.5,54.8,30.19,North,4,4.0,9.2,98,0.00,,---,0.01,VWS V14.01,2013-02-09 13:45:00,
2013-02-09 08:50:00,55.9,55.2,30.19,NNE,20,7.1,7.9,97,0.00,,---,0.01,VWS V14.01,2013-02-09 13:50:00,
2013-02-09 08:55:00,56.1,55.3,30.19,NNE,31,7.8,8.3,97,0.00,,---,0.01,VWS V14.01,2013-02-09 13:55:00,
2013-02-09 09:00:00,56.4,55.5,30.19,North,11,2.8,3.4,97,0.00,,---,0.01,VWS V14.01,2013-02-09 14:00:00,
2013-02-09 09:05:00,56.4,55.5,30.19,NNE,17,4.1,8.7,97,0.00,,---,0.01,VWS V14.01,2013-02-09 14:05:00,
2013-02-09 09:10:00,57.0,56.0,30.19,NW,321,6.8,6.8,96,0.00,,---,0.01,VWS V14.01,2013-02-09 14:10:00,
2013-02-09 09:15:00,57.2,56.0,30.19,North,359,5.0,5.5,96,0.00,,---,0.01,VWS V14.01,2013-02-09 14:15:00,
2013-02-09 09:20:00,57.7,56.4,30.19,NNE,20,4.6,5.7,95,0.00,,---,0.01,VWS V14.01,2013-02-09 14:20:00,
2013-02-09 09:25:00,58.4,57.0,30.20,NNE,20,2.5,3.7,95,0.00,,---,0.01,VWS V14.01,2013-02-09 14:25:00,
2013-02-09 09:30:00,57.7,55.7,30.20,North,353,6.8,8.0,93,0.00,,---,0.01,VWS V14.01,2013-02-09 14:30:00,
2013-02-09 09:35:00,58.8,56.5,30.20,NNE,15,6.4,6.4,92,0.00,,---,0.01,VWS V14.01,2013-02-09 14:35:00,
2013-02-09 09:40:00,59.5,56.7,30.20,NNE,32,6.8,9.3,90,0.00,,---,0.01,VWS V14.01,2013-02-09 14:40:00,
2013-02-09 09:45:00,60.2,57.0,30.20,North,4,4.3,7.7,89,0.00,,---,0.01,VWS V14.01,2013-02-09 14:45:00,
2013-02-09 09:50:00,60.5,56.7,30.20,North,6,4.8,6.5,87,0.00,,---,0.01,VWS V14.01,2013-02-09 14:50:00,
2013-02-09 09:55:00,61.0,56.6,30.20,NNE,17,4.8,6.4,85,0.00,,---,0.01,VWS V14.01,2013-02-09 14:55:00,
2013-02-09 10:00:00,60.5,55.7,30.20,NNE,14,6.8,9.2,84,0.00,,---,0.01,VWS V14.01,2013-02-09 15:00:00,
2013-02-09 10:05:00,60.9,55.9,30.20,NE,34,3.1,5.7,84,0.00,,---,0.01,VWS V14.01,2013-02-09 15:05:00,
2013-02-09 10:10:00,61.5,56.2,30.20,NE,39,1.7,5.6,83,0.00,,---,0.01,VWS V14.01,2013-02-09 15:10:00,
2013-02-09 10:15:00,62.6,56.7,30.20,North,359,3.0,3.3,81,0.00,,---,0.01,VWS V14.01,2013-02-09 15:15:00,
2013-02-09 10:20:00,62.2,55.8,30.20,NNE,25,5.0,7.6,80,0.00,,---,0.01,VWS V14.01,2013-02-09 15:20:00,
2013-02-09 10:25:00,63.2,56.4,30.20,ENE,75,2.1,3.8,78,0.00,,---,0.01,VWS V14.01,2013-02-09 15:25:00,
2013-02-09 10:30:00,63.8,56.6,30.20,NNE,22,6.1,7.8,77,0.00,,---,0.01,VWS V14.01,2013-02-09 15:30:00,
2013-02-09 10:35:00,63.6,55.9,30.20,NNE,15,3.4,5.9,76,0.00,,---,0.01,VWS V14.01,2013-02-09 15:35:00,
2013-02-09 10:40:00,65.1,57.0,30.20,North,3,6.5,8.8,75,0.00,,---,0.01,VWS V14.01,2013-02-09 15:40:00,
2013-02-09 10:45:00,65.3,56.6,30.20,NNE,31,7.2,9.3,73,0.00,,---,0.01,VWS V14.01,2013-02-09 15:45:00,
2013-02-09 10:50:00,65.1,55.7,30.20,North,4,5.7,9.4,72,0.00,,---,0.01,VWS V14.01,2013-02-09 15:50:00,
2013-02-09 10:55:00,66.3,56.0,30.20,NNE,27,8.9,13.1,70,0.00,,---,0.01,VWS V14.01,2013-02-09 15:55:00,
2013-02-09 11:00:00,65.5,54.9,30.20,NNE,30,4.3,6.8,68,0.00,,---,0.01,VWS V14.01,2013-02-09 16:00:00,
2013-02-09 11:05:00,66.5,55.5,30.20,NE,39,2.0,2.7,68,0.00,,---,0.01,VWS V14.01,2013-02-09 16:05:00,
2013-02-09 11:10:00,66.2,54.6,30.20,NE,42,9.0,12.5,66,0.00,,---,0.01,VWS V14.01,2013-02-09 16:10:00,
2013-02-09 11:15:00,66.3,54.8,30.20,North,359,5.7,11.1,66,0.00,,---,0.01,VWS V14.01,2013-02-09 16:15:00,
2013-02-09 11:19:00,67.0,55.0,30.20,NE,53,1.2,3.1,65,0.00,,---,0.01,VWS V14.01,2013-02-09 16:19:00,
2013-02-09 11:24:00,68.2,55.6,30.20,ENE,60,0.6,1.3,64,0.00,,---,0.01,VWS V14.01,2013-02-09 16:24:00,
2013-02-09 11:29:00,68.2,54.8,30.20,NNE,22,3.8,6.7,62,0.00,,---,0.01,VWS V14.01,2013-02-09 16:29:00,
2013-02-09 11:34:00,67.9,54.5,30.20,ENE,59,1.7,3.9,62,0.00,,---,0.01,VWS V14.01,2013-02-09 16:34:00,
2013-02-09 11:39:00,69.0,54.6,30.20,NNE,18,3.7,9.0,60,0.00,,---,0.01,VWS V14.01,2013-02-09 16:39:00,
2013-02-09 11:44:00,69.4,54.9,30.20,NNW,338,3.8,4.8,60,0.00,,---,0.01,VWS V14.01,2013-02-09 16:44:00,
2013-02-09 11:49:00,69.9,55.0,30.20,NNE,27,1.9,3.6,59,0.00,,---,0.01,VWS V14.01,2013-02-09 16:49:00,
2013-02-09 11:54:00,69.7,54.2,30.20,North,359,5.6,5.7,58,0.00,,---,0.01,VWS V14.01,2013-02-09 16:54:00,
2013-02-09 11:59:00,70.0,54.8,30.19,North,10,8.1,13.1,58,0.00,,---,0.01,VWS V14.01,2013-02-09 16:59:00,
2013-02-09 12:04:00,70.2,54.6,30.19,NNE,31,4.7,5.1,58,0.00,,---,0.01,VWS V14.01,2013-02-09 17:04:00,
2013-02-09 12:09:00,69.6,54.0,30.19,ENE,69,2.5,6.0,58,0.00,,---,0.01,VWS V14.01,2013-02-09 17:09:00,
2013-02-09 12:14:00,70.4,54.7,30.19,ENE,72,1.4,1.6,58,0.00,,---,0.01,VWS V14.01,2013-02-09 17:14:00,
2013-02-09 12:19:00,71.4,55.0,30.19,NNE,21,4.2,5.2,56,0.00,,---,0.01,VWS V14.01,2013-02-09 17:19:00,
2013-02-09 12:24:00,71.1,54.0,30.19,NNE,20,2.1,3.7,55,0.00,,---,0.01,VWS V14.01,2013-02-09 17:24:00,
2013-02-09 12:29:00,70.2,53.2,30.19,NNE,27,7.0,7.0,55,0.00,,---,0.01,VWS V14.01,2013-02-09 17:29:00,
2013-02-09 12:34:00,70.0,53.8,30.18,East,87,0.0,0.0,56,0.00,,---,0.01,VWS V14.01,2013-02-09 17:34:00,
2013-02-09 12:39:00,71.0,54.0,30.18,ESE,108,1.2,1.7,55,0.00,,---,0.01,VWS V14.01,2013-02-09 17:39:00,
2013-02-09 12:44:00,71.5,54.1,30.18,ENE,70,3.1,4.2,54,0.00,,---,0.01,VWS V14.01,2013-02-09 17:44:00,
2013-02-09 12:49:00,71.3,54.0,30.18,NNE,30,3.4,3.5,54,0.00,,---,0.01,VWS V14.01,2013-02-09 17:49:00,
2013-02-09 12:54:00,72.1,54.0,30.18,NNE,32,3.7,6.3,53,0.00,,---,0.01,VWS V14.01,2013-02-09 17:54:00,
2013-02-09 12:59:00,71.9,54.2,30.17,East,79,2.3,2.9,54,0.00,,---,0.01,VWS V14.01,2013-02-09 17:59:00,
2013-02-09 13:04:00,72.4,54.5,30.17,NNW,340,6.7,8.3,53,0.00,,---,0.01,VWS V14.01,2013-02-09 18:04:00,
2013-02-09 13:09:00,73.1,54.8,30.17,NNE,20,4.5,5.1,53,0.00,,---,0.01,VWS V14.01,2013-02-09 18:09:00,
2013-02-09 13:14:00,72.3,53.9,30.17,NE,37,3.4,5.8,52,0.00,,---,0.01,VWS V14.01,2013-02-09 18:14:00,
2013-02-09 13:19:00,72.2,53.7,30.17,ENE,63,1.7,4.2,52,0.00,,---,0.01,VWS V14.01,2013-02-09 18:19:00,
2013-02-09 13:24:00,73.8,54.7,30.17,ENE,62,1.0,1.4,51,0.00,,---,0.01,VWS V14.01,2013-02-09 18:24:00,
2013-02-09 13:29:00,73.7,54.1,30.17,North,8,1.6,2.4,50,0.00,,---,0.01,VWS V14.01,2013-02-09 18:29:00,
2013-02-09 13:34:00,72.8,53.4,30.16,NNE,27,0.6,1.1,51,0.00,,---,0.01,VWS V14.01,2013-02-09 18:34:00,
2013-02-09 13:39:00,73.4,54.3,30.16,North,11,8.4,8.4,51,0.00,,---,0.01,VWS V14.01,2013-02-09 18:39:00,
2013-02-09 13:44:00,72.4,53.4,30.16,ENE,63,1.6,2.9,51,0.00,,---,0.01,VWS V14.01,2013-02-09 18:44:00,
2013-02-09 13:49:00,73.6,53.6,30.16,East,98,2.9,5.0,50,0.00,,---,0.01,VWS V14.01,2013-02-09 18:49:00,
2013-02-09 13:54:00,75.1,53.8,30.15,East,97,6.1,7.2,48,0.00,,---,0.01,VWS V14.01,2013-02-09 18:54:00,
2013-02-09 13:59:00,76.6,54.6,30.15,North,11,1.4,1.4,46,0.00,,---,0.01,VWS V14.01,2013-02-09 18:59:00,
2013-02-09 14:04:00,76.5,54.0,30.16,NNE,13,1.6,1.9,46,0.00,,---,0.01,VWS V14.01,2013-02-09 19:04:00,
2013-02-09 14:09:00,75.6,53.6,30.16,NE,35,6.3,6.6,46,0.00,,---,0.01,VWS V14.01,2013-02-09 19:09:00,
2013-02-09 14:14:00,75.2,53.0,30.16,NE,55,5.1,7.5,46,0.00,,---,0.01,VWS V14.01,2013-02-09 19:14:00,
2013-02-09 14:19:00,74.0,52.2,30.16,North,11,1.9,2.2,46,0.00,,---,0.01,VWS V14.01,2013-02-09 19:19:00,
2013-02-09 14:24:00,74.3,52.5,30.15,SE,135,1.8,3.4,46,0.00,,---,0.01,VWS V14.01,2013-02-09 19:24:00,
2013-02-09 14:29:00,74.6,52.0,30.16,North,8,9.9,9.9,45,0.00,,---,0.01,VWS V14.01,2013-02-09 19:29:00,
2013-02-09 14:34:00,74.6,52.7,30.16,NNE,15,5.2,6.3,46,0.00,,---,0.01,VWS V14.01,2013-02-09 19:34:00,
2013-02-09 14:39:00,74.7,52.8,30.15,ENE,59,2.0,2.0,46,0.00,,---,0.01,VWS V14.01,2013-02-09 19:39:00,
2013-02-09 14:44:00,74.1,52.4,30.15,NE,56,3.7,5.5,47,0.00,,---,0.01,VWS V14.01,2013-02-09 19:44:00,
2013-02-09 14:49:00,74.5,52.6,30.16,NE,37,1.6,3.5,46,0.00,,---,0.01,VWS V14.01,2013-02-09 19:49:00,
2013-02-09 14:54:00,74.0,52.3,30.15,East,87,2.1,2.1,47,0.00,,---,0.01,VWS V14.01,2013-02-09 19:54:00,
2013-02-09 14:59:00,74.6,52.7,30.15,NE,34,8.0,9.3,46,0.00,,---,0.01,VWS V14.01,2013-02-09 19:59:00,
2013-02-09 15:04:00,75.1,52.3,30.15,ENE,63,1.3,3.3,45,0.00,,---,0.01,VWS V14.01,2013-02-09 20:04:00,
2013-02-09 15:09:00,75.1,51.8,30.16,ENE,68,2.0,4.7,44,0.00,,---,0.01,VWS V14.01,2013-02-09 20:09:00,
2013-02-09 15:14:00,75.5,51.8,30.15,NNE,22,4.3,6.2,44,0.00,,---,0.01,VWS V14.01,2013-02-09 20:14:00,
2013-02-09 15:19:00,76.1,52.7,30.16,NNE,27,1.7,3.2,44,0.00,,---,0.01,VWS V14.01,2013-02-09 20:19:00,
2013-02-09 15:24:00,75.7,51.6,30.16,NNE,20,1.7,3.6,43,0.00,,---,0.01,VWS V14.01,2013-02-09 20:24:00,
2013-02-09 15:29:00,76.1,52.4,30.15,NNE,30,6.0,6.1,44,0.00,,---,0.01,VWS V14.01,2013-02-09 20:29:00,
2013-02-09 15:34:00,75.7,53.4,30.15,East,94,2.7,5.5,46,0.00,,---,0.01,VWS V14.01,2013-02-09 20:34:00,
2013-02-09 15:39:00,74.7,52.9,30.15,SE,138,1.9,2.4,47,0.00,,---,0.01,VWS V14.01,2013-02-09 20:39:00,
2013-02-09 15:44:00,74.5,53.1,30.15,East,91,2.4,2.7,47,0.00,,---,0.01,VWS V14.01,2013-02-09 20:44:00,
2013-02-09 15:49:00,74.7,53.4,30.16,ENE,77,7.1,7.1,48,0.00,,---,0.01,VWS V14.01,2013-02-09 20:49:00,
2013-02-09 15:54:00,73.7,53.1,30.16,East,86,4.2,5.5,48,0.00,,---,0.01,VWS V14.01,2013-02-09 20:54:00,
2013-02-09 15:59:00,74.2,53.7,30.16,ENE,59,6.2,7.0,49,0.00,,---,0.01,VWS V14.01,2013-02-09 20:59:00,
2013-02-09 16:04:00,73.9,53.8,30.16,NNE,32,4.0,4.6,50,0.00,,---,0.01,VWS V14.01,2013-02-09 21:04:00,
2013-02-09 16:09:00,73.5,53.8,30.16,NNE,31,1.7,2.3,50,0.00,,---,0.01,VWS V14.01,2013-02-09 21:09:00,
2013-02-09 16:14:00,72.7,53.1,30.16,NE,41,4.3,4.3,50,0.00,,---,0.01,VWS V14.01,2013-02-09 21:14:00,
2013-02-09 16:19:00,73.3,53.7,30.17,NE,35,0.8,0.8,50,0.00,,---,0.01,VWS V14.01,2013-02-09 21:19:00,
2013-02-09 16:24:00,73.8,54.2,30.17,NE,35,0.4,0.4,50,0.00,,---,0.01,VWS V14.01,2013-02-09 21:24:00,
2013-02-09 16:29:00,74.0,54.3,30.17,NE,55,5.6,7.0,50,0.00,,---,0.01,VWS V14.01,2013-02-09 21:29:00,
2013-02-09 16:34:00,73.6,54.0,30.17,NE,44,3.4,4.1,50,0.00,,---,0.01,VWS V14.01,2013-02-09 21:34:00,
2013-02-09 16:39:00,72.4,53.5,30.17,NE,41,3.2,9.0,52,0.00,,---,0.01,VWS V14.01,2013-02-09 21:39:00,
2013-02-09 16:44:00,71.9,53.8,30.17,NE,35,2.7,8.6,53,0.00,,---,0.01,VWS V14.01,2013-02-09 21:44:00,
2013-02-09 16:49:00,71.1,53.6,30.17,NNE,15,5.7,8.0,54,0.00,,---,0.01,VWS V14.01,2013-02-09 21:49:00,
2013-02-09 16:54:00,70.8,53.8,30.17,NNE,31,4.5,5.7,55,0.00,,---,0.01,VWS V14.01,2013-02-09 21:54:00,
2013-02-09 16:59:00,70.8,53.8,30.17,NE,48,8.6,16.2,55,0.00,,---,0.01,VWS V14.01,2013-02-09 21:59:00,
2013-02-09 17:04:00,71.2,54.1,30.18,East,82,4.6,8.6,55,0.00,,---,0.01,VWS V14.01,2013-02-09 22:04:00,
2013-02-09 17:09:00,70.7,53.6,30.18,East,94,3.7,6.8,55,0.00,,---,0.01,VWS V14.01,2013-02-09 22:09:00,
2013-02-09 17:14:00,71.0,53.9,30.18,NNE,13,5.3,9.6,55,0.00,,---,0.01,VWS V14.01,2013-02-09 22:14:00,
2013-02-09 17:19:00,70.4,53.4,30.18,ENE,72,2.5,7.6,55,0.00,,---,0.01,VWS V14.01,2013-02-09 22:19:00,
2013-02-09 17:24:00,69.9,52.9,30.18,East,96,1.7,2.7,55,0.00,,---,0.01,VWS V14.01,2013-02-09 22:24:00,
2013-02-09 17:29:00,70.2,53.3,30.18,East,100,3.4,7.7,55,0.00,,---,0.01,VWS V14.01,2013-02-09 22:29:00,
2013-02-09 17:34:00,69.7,53.1,30.18,ENE,76,2.9,11.5,56,0.00,,---,0.01,VWS V14.01,2013-02-09 22:34:00,
2013-02-09 17:39:00,69.3,52.7,30.18,ENE,69,4.6,4.9,56,0.00,,---,0.01,VWS V14.01,2013-02-09 22:39:00,
2013-02-09 17:44:00,69.2,52.8,30.18,NNE,14,2.1,7.0,56,0.00,,---,0.01,VWS V14.01,2013-02-09 22:44:00,
2013-02-09 17:49:00,69.0,52.8,30.18,NE,53,1.3,4.1,56,0.00,,---,0.01,VWS V14.01,2013-02-09 22:49:00,
2013-02-09 17:54:00,69.0,53.0,30.18,ENE,75,1.3,3.5,57,0.00,,---,0.01,VWS V14.01,2013-02-09 22:54:00,
2013-02-09 17:59:00,68.3,52.3,30.18,NE,38,3.3,6.5,57,0.00,,---,0.01,VWS V14.01,2013-02-09 22:59:00,
2013-02-09 18:04:00,68.5,52.9,30.18,North,4,5.3,7.6,58,0.00,,---,0.01,VWS V14.01,2013-02-09 23:04:00,
2013-02-09 18:09:00,68.3,53.1,30.18,NNE,28,6.3,8.1,58,0.00,,---,0.01,VWS V14.01,2013-02-09 23:09:00,
2013-02-09 18:14:00,67.9,53.1,30.18,ENE,59,1.7,8.5,59,0.00,,---,0.01,VWS V14.01,2013-02-09 23:14:00,
2013-02-09 18:19:00,67.7,53.4,30.18,ENE,70,4.2,10.3,60,0.00,,---,0.01,VWS V14.01,2013-02-09 23:19:00,
2013-02-09 18:24:00,67.4,53.5,30.18,NNE,14,4.3,7.0,61,0.00,,---,0.01,VWS V14.01,2013-02-09 23:24:00,
2013-02-09 18:29:00,66.9,53.2,30.19,East,84,2.8,5.3,62,0.00,,---,0.01,VWS V14.01,2013-02-09 23:29:00,
2013-02-09 18:34:00,67.0,53.7,30.18,ENE,59,3.4,6.6,62,0.00,,---,0.01,VWS V14.01,2013-02-09 23:34:00,
2013-02-09 18:39:00,66.4,53.2,30.19,NNE,17,3.6,7.8,62,0.00,,---,0.01,VWS V14.01,2013-02-09 23:39:00,
2013-02-09 18:44:00,66.7,53.5,30.19,ENE,62,1.9,7.3,62,0.00,,---,0.01,VWS V14.01,2013-02-09 23:44:00,
2013-02-09 18:49:00,66.1,52.9,30.19,East,83,2.2,6.9,62,0.00,,---,0.01,VWS V14.01,2013-02-09 23:49:00,
2013-02-09 18:54:00,65.4,52.4,30.19,NE,51,2.2,3.2,63,0.00,,---,0.01,VWS V14.01,2013-02-09 23:54:00,
2013-02-09 18:59:00,65.7,52.8,30.19,NE,56,1.5,5.4,63,0.00,,---,0.01,VWS V14.01,2013-02-09 23:59:00,
2013-02-09 19:04:00,65.2,52.4,30.19,NNE,25,2.4,3.6,63,0.00,,---,0.01,VWS V14.01,2013-02-10 00:04:00,
2013-02-09 19:09:00,65.4,52.8,30.19,East,91,1.4,3.8,64,0.00,,---,0.01,VWS V14.01,2013-02-10 00:09:00,
2013-02-09 19:14:00,65.8,53.3,30.19,NE,55,1.4,6.5,64,0.00,,---,0.01,VWS V14.01,2013-02-10 00:14:00,
2013-02-09 19:19:00,65.1,52.7,30.19,NE,41,4.5,4.5,64,0.00,,---,0.01,VWS V14.01,2013-02-10 00:19:00,
2013-02-09 19:24:00,65.3,52.9,30.19,NE,56,3.5,4.9,64,0.00,,---,0.01,VWS V14.01,2013-02-10 00:24:00,
2013-02-09 19:29:00,65.0,52.7,30.20,NE,37,3.2,5.9,64,0.00,,---,0.01,VWS V14.01,2013-02-10 00:29:00,
2013-02-09 19:34:00,64.6,52.5,30.20,NNE,28,3.7,3.7,65,0.00,,---,0.01,VWS V14.01,2013-02-10 00:34:00,
2013-02-09 19:39:00,64.2,52.3,30.20,NE,55,3.2,6.0,65,0.00,,---,0.01,VWS V14.01,2013-02-10 00:39:00,
2013-02-09 19:44:00,63.7,52.1,30.20,NE,37,4.4,6.8,66,0.00,,---,0.01,VWS V14.01,2013-02-10 00:44:00,
2013-02-09 19:49:00,64.1,52.7,30.20,NNE,13,4.0,4.8,66,0.00,,---,0.01,VWS V14.01,2013-02-10 00:49:00,
2013-02-09 19:54:00,64.4,53.2,30.20,NNE,17,1.2,3.0,67,0.00,,---,0.01,VWS V14.01,2013-02-10 00:54:00,
2013-02-09 19:59:00,63.8,52.8,30.20,NNE,25,1.7,6.0,68,0.00,,---,0.01,VWS V14.01,2013-02-10 00:59:00,
2013-02-09 20:04:00,63.6,52.9,30.20,ENE,68,3.1,6.6,68,0.00,,---,0.01,VWS V14.01,2013-02-10 01:04:00,
2013-02-09 20:09:00,63.6,53.1,30.20,NE,46,3.4,5.7,69,0.00,,---,0.01,VWS V14.01,2013-02-10 01:09:00,
2013-02-09 20:14:00,63.7,53.4,30.20,ENE,63,2.7,5.9,69,0.00,,---,0.01,VWS V14.01,2013-02-10 01:14:00,
2013-02-09 20:19:00,63.3,53.2,30.20,North,8,4.5,5.5,70,0.00,,---,0.01,VWS V14.01,2013-02-10 01:19:00,
2013-02-09 20:24:00,62.4,52.5,30.20,NNE,24,5.4,6.3,70,0.00,,---,0.01,VWS V14.01,2013-02-10 01:24:00,
2013-02-09 20:29:00,62.7,53.0,30.20,North,11,8.1,8.8,70,0.00,,---,0.01,VWS V14.01,2013-02-10 01:29:00,
2013-02-09 20:34:00,62.7,53.2,30.21,ENE,58,1.9,5.4,71,0.00,,---,0.01,VWS V14.01,2013-02-10 01:34:00,
2013-02-09 20:39:00,62.8,53.4,30.20,NNE,25,1.7,5.7,71,0.00,,---,0.01,VWS V14.01,2013-02-10 01:39:00,
2013-02-09 20:44:00,62.6,53.4,30.21,NE,39,3.2,3.8,72,0.00,,---,0.01,VWS V14.01,2013-02-10 01:44:00,
2013-02-09 20:49:00,62.5,53.5,30.21,NE,55,1.4,8.9,72,0.00,,---,0.01,VWS V14.01,2013-02-10 01:49:00,
2013-02-09 20:54:00,61.9,53.1,30.21,NE,44,2.1,4.3,73,0.00,,---,0.01,VWS V14.01,2013-02-10 01:54:00,
2013-02-09 20:59:00,62.0,53.3,30.21,NE,42,0.2,3.8,73,0.00,,---,0.01,VWS V14.01,2013-02-10 01:59:00,
2013-02-09 21:04:00,61.8,53.3,30.21,East,79,2.9,5.0,74,0.00,,---,0.01,VWS V14.01,2013-02-10 02:04:00,
2013-02-09 21:09:00,61.5,53.2,30.22,NNE,22,2.0,6.7,74,0.00,,---,0.01,VWS V14.01,2013-02-10 02:09:00,
2013-02-09 21:14:00,61.3,53.2,30.22,NE,37,2.5,6.5,75,0.00,,---,0.01,VWS V14.01,2013-02-10 02:14:00,
2013-02-09 21:19:00,61.3,53.3,30.22,NNE,27,3.4,5.3,75,0.00,,---,0.01,VWS V14.01,2013-02-10 02:19:00,
2013-02-09 21:24:00,61.1,53.2,30.22,NE,42,2.5,4.7,75,0.00,,---,0.01,VWS V14.01,2013-02-10 02:24:00,
2013-02-09 21:29:00,61.5,53.7,30.22,NNE,28,1.2,2.2,75,0.00,,---,0.01,VWS V14.01,2013-02-10 02:29:00,
2013-02-09 21:34:00,61.4,53.6,30.22,ENE,68,2.1,2.1,76,0.00,,---,0.01,VWS V14.01,2013-02-10 02:34:00,
2013-02-09 21:39:00,61.1,53.5,30.22,NE,37,0.7,2.8,76,0.00,,---,0.01,VWS V14.01,2013-02-10 02:39:00,
2013-02-09 21:44:00,61.1,53.6,30.22,NNE,28,0.0,2.7,76,0.00,,---,0.01,VWS V14.01,2013-02-10 02:44:00,
2013-02-09 21:49:00,61.0,53.6,30.22,NNE,31,1.8,2.5,77,0.00,,---,0.01,VWS V14.01,2013-02-10 02:49:00,
2013-02-09 21:54:00,60.4,53.2,30.22,ENE,77,0.0,0.0,77,0.00,,---,0.01,VWS V14.01,2013-02-10 02:54:00,
2013-02-09 21:59:00,60.5,53.4,30.22,NE,53,1.1,4.2,77,0.00,,---,0.01,VWS V14.01,2013-02-10 02:59:00,
2013-02-09 22:04:00,60.6,53.6,30.22,NE,39,0.9,3.7,78,0.00,,---,0.01,VWS V14.01,2013-02-10 03:04:00,
2013-02-09 22:09:00,60.2,53.2,30.23,NNE,25,0.2,2.9,78,0.00,,---,0.01,VWS V14.01,2013-02-10 03:09:00,
2013-02-09 22:14:00,59.9,53.0,30.22,NNE,21,0.0,0.0,78,0.00,,---,0.01,VWS V14.01,2013-02-10 03:14:00,
2013-02-09 22:19:00,59.9,53.1,30.22,NNE,14,0.2,0.2,78,0.00,,---,0.01,VWS V14.01,2013-02-10 03:19:00,
2013-02-09 22:24:00,59.9,53.2,30.22,NNE,25,0.4,3.2,78,0.00,,---,0.01,VWS V14.01,2013-02-10 03:24:00,
2013-02-09 22:29:00,59.4,52.8,30.23,NNE,24,0.0,0.0,79,0.00,,---,0.01,VWS V14.01,2013-02-10 03:29:00,
2013-02-09 22:34:00,59.5,53.0,30.23,NE,38,1.6,2.1,79,0.00,,---,0.01,VWS V14.01,2013-02-10 03:34:00,
2013-02-09 22:39:00,59.3,52.9,30.22,NNE,30,0.6,1.0,79,0.00,,---,0.01,VWS V14.01,2013-02-10 03:39:00,
2013-02-09 22:44:00,59.4,53.1,30.23,NNE,28,0.5,1.1,80,0.00,,---,0.01,VWS V14.01,2013-02-10 03:44:00,
2013-02-09 22:49:00,59.5,53.3,30.22,NNE,17,0.0,0.6,80,0.00,,---,0.01,VWS V14.01,2013-02-10 03:49:00,
2013-02-09 22:54:00,59.8,53.6,30.22,NNE,20,0.0,0.0,80,0.00,,---,0.01,VWS V14.01,2013-02-10 03:54:00,
2013-02-09 22:59:00,59.6,53.5,30.22,NNE,15,0.3,3.0,80,0.00,,---,0.01,VWS V14.01,2013-02-10 03:59:00,
2013-02-09 23:04:00,59.1,53.0,30.22,NNE,20,0.0,0.0,80,0.00,,---,0.01,VWS V14.01,2013-02-10 04:04:00,
2013-02-09 23:09:00,59.1,53.2,30.22,NE,48,0.0,1.9,81,0.00,,---,0.01,VWS V14.01,2013-02-10 04:09:00,
2013-02-09 23:14:00,59.4,53.5,30.22,ENE,63,0.6,0.8,81,0.00,,---,0.01,VWS V14.01,2013-02-10 04:14:00,
2013-02-09 23:19:00,59.5,53.7,30.22,NNE,22,0.0,0.0,81,0.00,,---,0.01,VWS V14.01,2013-02-10 04:19:00,
2013-02-09 23:24:00,59.4,53.7,30.22,NNE,20,0.2,0.5,82,0.00,,---,0.01,VWS V14.01,2013-02-10 04:24:00,
2013-02-09 23:29:00,59.4,53.8,30.22,NNE,20,0.0,0.0,82,0.00,,---,0.01,VWS V14.01,2013-02-10 04:29:00,
2013-02-09 23:34:00,59.1,53.7,30.23,North,10,2.4,3.0,82,0.00,,---,0.01,VWS V14.01,2013-02-10 04:34:00,
2013-02-09 23:39:00,59.4,54.0,30.22,NE,45,0.0,0.0,82,0.00,,---,0.01,VWS V14.01,2013-02-10 04:39:00,
2013-02-09 23:44:00,59.2,53.9,30.23,ENE,62,0.0,0.0,83,0.00,,---,0.01,VWS V14.01,2013-02-10 04:44:00,
2013-02-09 23:49:00,59.4,54.2,30.22,ENE,70,1.4,1.5,83,0.00,,---,0.01,VWS V14.01,2013-02-10 04:49:00,
2013-02-09 23:54:00,59.0,53.9,30.23,ENE,60,0.0,0.0,83,0.00,,---,0.01,VWS V14.01,2013-02-10 04:54:00,
2013-02-09 23:59:00,59.4,54.4,30.22,NE,41,0.0,0.0,84,0.00,,---,0.01,VWS V14.01,2013-02-10 04:59:00,